Location: Waco, TX
(31.5480°N, 97.1670°W)
Time: 22:56:46
(UTC-05:00)

ISS - Pass Details

Date: 23 April 2018
Orbit: 403 x 406 km, 51.6° (Epoch: 23 April)

Event Time Altitude Azimuth Distance (km) Brightness Sun altitude
Rises 08:07:25 0° 207° (SSW) 2,298 -0.3 15.1°
Reaches altitude 10° 08:09:34 10° 199° (SSW) 1,444 -1.2 15.5°
Maximum altitude 08:12:34 36° 130° (SE) 658 -1.9 16.2°
Drops below altitude 10° 08:15:35 10° 62° (ENE) 1,453 0.5 16.8°
Sets 08:17:46 0° 54° (NE) 2,315 1.0 17.3°
